"Pseudo-MPEC" for P11JuVL

Created 2023 Oct 1 1:22:09 UT using Find_Orb

Click here for an explanation of pseudo-MPECs

 
 Astrometry: 
     P11JuVL* C2023 09 145%GAhqy(B+:)A-lC8Z-xuOR,MKIxm^G\=nAstrometry$+@#hbb(F51
     P11JuVL  C2023 09 14k]i7[r3ZG=fSj7WB^;iA28yXV`tB?!eV[G(H[OeG)/9:QQ/ArA3qF51
     P11JuVL  C2023 09 149kMSeEu^;:[w*wLIx/YkIdC2_;Trgm=nG\nv@n75PS24*^7)HptKF51
     P11JuVL  C2023 09 145=^t3lmredacted;Tclick_dH`G7geN;\h)f'@IOkxTo8T(*G6DfF51
     P11JuVL 2C2023 09 14_^3UuT@$15`yrm*/^(dQVrZ;tp_`/wM?s'9herew8)78!qrn!\,]K93
     P11JuVL 2C2023 09 14$5VwIqKs01].^V[?oXXRIJ.tvPXc3Xgid%:iSK638FnXojHO:VIjK93
     P11JuVL 2C2023 09 142y#ug5=C$[I?KVDKlWl%va+@/44?]$R7'for'X=D!u$nQZ8VItrNK93
     P11JuVL 2C2023 09 14JZ3jexplanationCGXc+];vBT5A/1GhYRr.)u]U$-i7R3_dPDGEtK93

Station data:
(F51) Pan-STARRS 1, Haleakala  (N20.707234 W156.255910)  US/Hawaii.
   Observers J. Bulger, T. Lowe, A. Schultz, M. Willman. Measurers K.
   Chambers, S. Chastel, T. de Boer, L. Denneau, J. Fairlamb, H. Flewelling,
   M. Huber, C.-C. Lin, E. Magnier, Y. Ramanjooloo, R. Wainscoat, R. Weryk.
   1.8-m Ritchey-Chrétien + CCD.
(K93) Sutherland-LCOGT C  (S32.380667 E20.810110)  South Africa.  Observer J.
   D. Armstrong. 1.0-m f/8.0 Ritchey-Chrétien + CCD.

Orbital elements:  P11JuVL
   Perihelion 2023 Dec 13.65773 +/- 69.1 TT = 15:47:08 (JD 2460292.15773)
Epoch 2023 Sep 15.0 TT = JDT 2460202.5   Earth MOID: 0.3385   Ju: 0.9236
M 354.83520594 +/- 9                Ma: 0.0937   Sa: 0.1424      AutoNEOCP
n   0.05760567 +/- 0.0724           Peri.   14.99680 +/- 80
a   6.63986445 +/- 5.56             Node    41.05183 +/- 20
e   0.8013751 +/- 0.188             Incl.   22.61262 +/- 3.6
P  17.11                   H 19.00  G  0.15   U 11.0  SR
q 1.31884175 +/- 0.3    Q 11.9608871 +/- 5.29             (J2000 ecliptic)
From 8 observations 2023 Sept. 14 (11.5 hr); mean residual 0".08
Residuals in arcseconds: 
230914 F51  .16+  .13+    230914 F51  .09-  .07-    230914 K93  .02+  .06-    
230914 F51  .03-  .00     230914 K93  .05-  .02+    230914 K93  .13+  .05+    
230914 F51  .05-  .07-    230914 K93  .06-  .03+    

Ephemerides (geocentric):
Date (UTC) HH   RA             Dec           delta  r     elong  mag " sig PA
---- --------  ------------   ------------  ------ ------ -----  --- --------
2023 10 01 01  00 45 50.757   -33 15 04.79  .71479 1.6327 143.6 20.4 1378  67
2023 10 01 02  00 45 47.518   -33 14 44.19  .71449 1.6324 143.6 20.4 1386  67
2023 10 01 03  00 45 44.275   -33 14 23.51  .71420 1.6321 143.6 20.4 1394  67
2023 10 01 04  00 45 41.030   -33 14 02.74  .71390 1.6318 143.6 20.4 1402  67
2023 10 01 05  00 45 37.781   -33 13 41.87  .71361 1.6314 143.6 20.4 1410  67
2023 10 01 06  00 45 34.530   -33 13 20.92  .71331 1.6311 143.6 20.4 1419  67
2023 10 01 07  00 45 31.276   -33 12 59.88  .71302 1.6308 143.6 20.4 1427  67
2023 10 01 08  00 45 28.018   -33 12 38.76  .71272 1.6305 143.5 20.4 1435  67
2023 10 01 09  00 45 24.758   -33 12 17.54  .71243 1.6302 143.5 20.4 1443  67
2023 10 01 10  00 45 21.495   -33 11 56.23  .71214 1.6299 143.5 20.4 1451  67
2023 10 01 11  00 45 18.228   -33 11 34.83  .71184 1.6296 143.5 20.4 1460  67
2023 10 01 12  00 45 14.959   -33 11 13.35  .71155 1.6293 143.5 20.4 1468  67
2023 10 01 13  00 45 11.687   -33 10 51.77  .71126 1.6290 143.5 20.4 1476  67
2023 10 01 14  00 45 08.412   -33 10 30.11  .71097 1.6287 143.5 20.4 1485  66
2023 10 01 15  00 45 05.134   -33 10 08.35  .71068 1.6284 143.5 20.4 1493  66
2023 10 01 16  00 45 01.853   -33 09 46.50  .71038 1.6281 143.5 20.4 1502  66
2023 10 01 17  00 44 58.569   -33 09 24.57  .71009 1.6278 143.5 20.4 1510  66
2023 10 01 18  00 44 55.282   -33 09 02.54  .70980 1.6275 143.5 20.4 1519  66
2023 10 01 19  00 44 51.993   -33 08 40.43  .70951 1.6272 143.5 20.4 1527  66
2023 10 01 20  00 44 48.700   -33 08 18.22  .70922 1.6269 143.5 20.4 1536  66
2023 10 01 21  00 44 45.405   -33 07 55.92  .70893 1.6266 143.5 20.4 1544  66
2023 10 01 22  00 44 42.107   -33 07 33.53  .70864 1.6263 143.5 20.4 1553  66
2023 10 01 23  00 44 38.806   -33 07 11.05  .70835 1.6259 143.5 20.4 1562  66
2023 10 02 00  00 44 35.502   -33 06 48.48  .70806 1.6256 143.5 20.3 1570  66
2023 10 02 01  00 44 32.195   -33 06 25.82  .70777 1.6253 143.5 20.3 1579  66
2023 10 02 02  00 44 28.885   -33 06 03.07  .70748 1.6250 143.5 20.3 1588  66
2023 10 02 03  00 44 25.573   -33 05 40.23  .70719 1.6247 143.5 20.3 1597  66
2023 10 02 04  00 44 22.258   -33 05 17.29  .70690 1.6244 143.4 20.3 1605  66
2023 10 02 05  00 44 18.940   -33 04 54.26  .70662 1.6241 143.4 20.3 1614  66
2023 10 02 06  00 44 15.619   -33 04 31.15  .70633 1.6238 143.4 20.3 1623  66
2023 10 02 07  00 44 12.295   -33 04 07.94  .70604 1.6235 143.4 20.3 1632  66
2023 10 02 08  00 44 08.969   -33 03 44.63  .70575 1.6232 143.4 20.3 1641  66
2023 10 02 09  00 44 05.640   -33 03 21.24  .70547 1.6229 143.4 20.3 1650  66
2023 10 02 10  00 44 02.308   -33 02 57.75  .70518 1.6226 143.4 20.3 1659  66
2023 10 02 11  00 43 58.974   -33 02 34.18  .70489 1.6223 143.4 20.3 1668  66
2023 10 02 12  00 43 55.636   -33 02 10.51  .70461 1.6220 143.4 20.3 1677  66
2023 10 02 13  00 43 52.296   -33 01 46.74  .70432 1.6217 143.4 20.3 1686  66
2023 10 02 14  00 43 48.953   -33 01 22.89  .70403 1.6214 143.4 20.3 1695  66
2023 10 02 15  00 43 45.608   -33 00 58.94  .70375 1.6211 143.4 20.3 1704  66
2023 10 02 16  00 43 42.260   -33 00 34.90  .70346 1.6208 143.4 20.3 1714  66
2023 10 02 17  00 43 38.909   -33 00 10.77  .70318 1.6205 143.4 20.3 1723  66
2023 10 02 18  00 43 35.555   -32 59 46.54  .70289 1.6202 143.4 20.3 1732  65
2023 10 02 19  00 43 32.199   -32 59 22.22  .70261 1.6199 143.4 20.3 1741  65
2023 10 02 20  00 43 28.840   -32 58 57.81  .70232 1.6196 143.4 20.3 1751  65
2023 10 02 21  00 43 25.479   -32 58 33.30  .70204 1.6193 143.3 20.3 1760  65
2023 10 02 22  00 43 22.115   -32 58 08.70  .70176 1.6190 143.3 20.3 1769  65
2023 10 02 23  00 43 18.748   -32 57 44.01  .70147 1.6187 143.3 20.3 1779  65
2023 10 03 00  00 43 15.378   -32 57 19.22  .70119 1.6184 143.3 20.3 1788  65